Presure
190 183 184 184 179 182 180 178 174 176 177 180 172 167 174 178 188 188 181 182 175 183 184 188 180 198 196 196 195 197 203 204
177 169 173 187 174 175 180 179 180 172 174 173 180 178 183 179 173 170 171 174 180 176 180 186 187 184 190 194 196 202 199 201
171 157 143 168 178 176 180 170 171 170 165 174 162 178 173 173 184 189 161 192 172 173 176 174 174 192 193 194 201 197 201 207
159 170 172 168 180 175 163 152 172 173 185 183 180 152 179 181 183 190 190 189 188 184 192 182 177 178 182 194 199 196 202 200
178 107 125 173 173 135 155 157 164 175 173 147 174 167 150 180 175 185 146 186 183 186 187 200 204 203 179 195 193 199 204 207
101 170 158 167 170 163 141 152 169 163 128 182 174 174 184 180 181 179 188 190 193 194 198 162 206 201 211 205 208 130 194 205
135 167 173 171 167 151 141 143 163 133 163 182 184 184 183 186 175 180 194 195 191 198 205 212 221 226 228 240 243 249 247 267
140 101 171 171 167 173 178 134 118 116 127 182 147 176 174 190 195 188 202 232 237 235 229 232 246 254 255 265 251 265 294 266
177 171 177 167 127 180 181 138 128 165 173 180 173 182 188 193 207 228 229 235 232 240 276 258 241 276 311 310 311 317 323 318
171 173 169 173 116 122 122 132 183 182 174 184 191 203 211 206 222 226 241 249 281 281 287 325 346 340 334 324 324 324 345 343
165 159 172 173 153 169 192 188 182 191 192 196 207 210 214 220 239 250 269 274 272 296 303 292 301 297 295 292 293 288 252 274
180 163 170 121 130 160 177 199 201 193 203 206 214 226 218 232 256 269 268 290 311 293 288 285 286 281 272 282 281 286 287 291
155 116 122 184 181 193 194 192 205 208 213 219 244 245 254 229 269 268 294 309 291 274 268 266 270 266 243 261 252 264 278 276
128 170 179 187 191 192 195 206 213 213 220 214 248 246 250 277 264 288 302 298 266 260 262 265 266 271 296 297 294 284 264 277
114 182 187 132 202 201 204 214 211 226 244 238 224 247 285 289 292 300 304 275 257 255 260 264 255 276 280 380 283 282 377 370
186 183 201 204 204 209 216 221 216 227 235 251 253 294 291 302 312 278 264 255 253 248 312 341 410 403 361 361 353 368 362 350
115 207 211 195 216 219 205 225 229 244 258 252 302 298 315 309 282 286 304 383 432 402 423 409 395 390 383 371 366 355 351 349
204 205 216 216 213 208 239 235 246 265 253 299 298 312 302 285 303 373 406 428 401 415 400 391 379 374 365 358 353 352 343 347
209 174 217 231 232 247 237 246 270 274 309 312 318 310 297 322 395 407 429 410 412 395 390 379 370 360 352 350 339 335 349 339
Wind_Speed
17 20 23 26 28 34 34 35 35 39 41 42 37 37 42 44 50 51 50 50 45 50 51 52 50 55 58 60 59 60 60 61
26 32 32 34 33 36 40 42 43 43 49 50 53 53 57 54 50 50 51 53 58 54 58 62 63 64 65 67 69 68 67 68
38 37 44 36 36 40 42 42 44 46 48 56 51 60 57 55 62 63 51 64 60 58 60 59 61 70 72 75 77 77 76 76
41 43 40 40 42 41 42 44 49 53 58 59 62 52 66 69 70 75 78 77 79 78 81 74 66 69 76 77 80 85 87 83
41 32 51 47 49 41 43 48 52 64 65 48 65 61 54 78 78 88 57 90 86 90 90 91 90 90 74 84 83 86 89 92
35 47 47 50 55 49 38 47 70 64 41 80 75 77 86 84 85 85 95 98 97 98 98 75 99 95 96 92 92 61 85 89
42 51 57 58 60 51 41 46 67 39 70 85 87 89 91 92 79 86 98 97 95 98 98 100 106 104 104 107 105 104 102 104
48 36 58 61 63 70 73 45 38 41 47 86 67 82 82 98 101 90 102 107 108 109 109 110 112 113 110 108 100 101 99 98
54 57 60 60 39 72 75 52 51 74 84 89 84 93 101 103 107 117 115 114 112 113 110 107 104 106 97 97 96 96 96 97
57 59 60 67 45 46 47 55 87 88 81 94 100 107 114 117 122 120 117 116 108 105 106 94 85 82 81 82 82 82 85 85
54 52 69 72 59 78 91 89 88 97 98 103 114 118 118 120 121 120 113 107 106 96 87 90 86 85 82 83 82 83 80 80
75 63 71 46 53 76 79 103 106 107 114 117 121 121 119 119 116 111 111 105 90 87 87 88 87 86 84 82 84 84 83 81
59 38 48 93 90 105 109 108 115 117 119 121 117 119 118 117 110 110 101 94 87 90 89 89 89 87 81 87 81 81 79 77
50 86 92 103 107 108 112 117 117 118 122 117 119 111 120 113 110 107 96 88 90 92 92 91 91 91 87 83 82 80 79 73
41 100 105 69 115 116 119 121 120 120 120 121 107 120 115 110 105 99 94 90 95 94 95 94 87 93 89 59 83 81 51 51
104 99 111 114 117 119 120 121 122 124 127 130 126 114 110 104 100 94 95 96 96 92 86 70 49 46 56 55 55 47 49 53
53 110 110 104 115 117 119 123 123 130 130 127 119 114 109 103 97 96 100 92 58 70 48 47 49 47 45 45 46 48 51 54
108 112 111 114 117 118 127 124 130 132 125 122 117 113 108 105 108 100 76 57 64 48 48 47 47 44 45 45 46 46 50 53
108 85 117 125 123 131 125 133 135 127 122 118 113 110 109 110 86 72 52 55 47 48 45 45 44 43 44 43 45 49 50 49
Wind_Direction
312 305 314 322 312 324 323 324 320 324 317 314 297 287 306 311 312 311 308 307 301 304 302 300 299 288 286 284 284 281 280 277
300 296 312 330 312 314 320 321 324 312 314 312 312 312 311 310 307 301 302 305 304 303 303 302 300 298 294 289 287 284 283 283
296 300 303 307 317 314 312 312 314 310 304 307 302 308 307 306 306 302 290 297 298 298 300 301 301 293 291 290 287 287 285 284
305 305 304 301 308 305 295 295 306 305 302 302 304 293 305 302 304 307 307 305 303 301 298 297 297 297 296 291 290 291 290 289
292 307 311 317 315 277 286 301 311 310 315 297 316 302 283 313 311 310 285 305 305 303 300 297 295 293 289 291 289 287 285 286
312 309 311 313 311 307 284 304 309 308 291 305 308 307 306 307 305 304 302 300 299 298 297 299 296 294 291 288 287 293 284 284
304 307 300 304 307 299 301 304 306 298 301 302 301 302 301 300 304 303 296 293 294 295 295 294 292 292 292 292 290 289 287 286
303 308 298 295 293 297 298 307 305 300 304 301 306 305 306 298 295 298 299 295 295 297 298 299 297 295 294 293 290 289 286 288
285 288 289 294 310 293 295 309 313 301 300 299 304 302 300 300 301 303 303 301 301 300 297 297 297 294 291 290 288 286 284 281
298 298 300 302 316 314 311 303 299 303 307 303 302 303 305 307 305 304 304 302 301 301 300 298 296 294 293 293 290 288 287 284
302 302 306 306 306 302 302 302 302 300 302 306 308 305 305 305 304 305 304 304 303 302 301 300 299 298 296 295 295 294 295 294
301 301 306 309 309 307 307 304 306 310 308 307 306 304 307 308 309 308 307 305 304 302 301 301 298 298 299 297 295 293 292 290
300 307 318 306 309 309 309 310 307 308 307 306 311 309 311 307 308 308 306 306 301 300 300 301 300 299 299 298 297 296 292 290
312 310 311 310 308 308 309 307 307 307 305 307 311 312 312 310 309 309 307 303 300 302 302 302 301 299 295 294 292 291 290 289
321 309 308 318 306 307 307 305 306 306 311 311 312 313 312 311 309 308 308 300 302 303 303 302 302 297 295 290 292 291 286 283
307 306 304 305 305 304 303 306 308 312 314 314 313 313 311 310 310 304 300 301 302 304 300 299 293 289 292 291 291 289 287 286
323 305 304 304 303 307 308 311 312 315 312 313 314 312 313 311 307 305 306 308 307 305 300 299 297 297 296 293 292 292 290 288
303 303 307 307 306 307 314 313 313 313 314 314 314 314 313 311 311 308 309 306 305 302 301 300 298 295 293 294 294 292 289 287
304 303 310 315 314 317 314 314 313 315 314 314 315 314 313 311 311 309 307 306 303 300 297 296 293 292 293 295 294 291 289 286